BWA212 TTPP-TTCP

Flight info

Callsign BWA212
Flight time 0h 19m
Altitude 7000
Route DCT SASIM DCT NOTEL DCT
Aircraft AT76/M-SDFGIRY/S

Departure

Time 2026-05-03 20:50
Airport Piarco International Airport (TTPP)

Arrival

Time 2026-05-03 21:10
Airport A.N.R. Robinson International Airport (TTCP)
Time Latitude Longitude Altitude Speed Heading
2026-05-03 20:41 10.59659 -61.35141 13 ft 0 kts 359°
2026-05-03 20:45 10.59655 -61.35141 13 ft 0 kts 360°
2026-05-03 20:45 10.59674 -61.35145 13 ft 0 kts 332°
2026-05-03 20:46 10.59676 -61.35148 13 ft 0 kts 313°
2026-05-03 20:46 10.59676 -61.35147 13 ft 0 kts 314°
2026-05-03 20:46 10.59672 -61.35144 13 ft 2 kts 314°
2026-05-03 20:46 10.59669 -61.35140 13 ft 0 kts 316°
2026-05-03 20:47 10.59676 -61.35160 13 ft 0 kts 277°
2026-05-03 20:48 10.59671 -61.35167 13 ft 4 kts 229°
2026-05-03 20:48 10.59658 -61.35167 13 ft 1 kts 166°
2026-05-03 20:48 10.59640 -61.35157 13 ft 3 kts 139°
2026-05-03 20:48 10.59634 -61.35136 13 ft 2 kts 95°
2026-05-03 20:49 10.59628 -61.35107 13 ft 5 kts 131°
2026-05-03 20:49 10.59579 -61.35122 13 ft 11 kts 213°
2026-05-03 20:49 10.59535 -61.35115 13 ft 8 kts 86°
2026-05-03 20:49 10.59545 -61.35102 13 ft 1 kts 21°
2026-05-03 20:50 10.59543 -61.34967 13 ft 41 kts 93°
2026-05-03 20:50 10.59529 -61.34456 13 ft 103 kts 90°
2026-05-03 20:50 10.59566 -61.33695 501 ft 101 kts 84°
2026-05-03 20:50 10.59587 -61.32981 946 ft 104 kts 86°
2026-05-03 20:51 10.59552 -61.32286 1407 ft 99 kts 99°
2026-05-03 20:51 10.59515 -61.31501 1620 ft 119 kts 89°
2026-05-03 20:51 10.59495 -61.30693 1944 ft 109 kts 92°
2026-05-03 20:51 10.59475 -61.29888 2043 ft 121 kts 91°
2026-05-03 20:52 10.59483 -61.29035 2349 ft 117 kts 89°
2026-05-03 20:52 10.59705 -61.28263 2497 ft 122 kts 45°
2026-05-03 20:52 10.60546 -61.28079 2610 ft 133 kts
2026-05-03 20:52 10.61488 -61.28081 2789 ft 137 kts
2026-05-03 20:53 10.62448 -61.28047 2996 ft 136 kts 11°
2026-05-03 20:53 10.63395 -61.27973 3175 ft 137 kts 14°
2026-05-03 20:53 10.64343 -61.27836 3371 ft 139 kts 17°
2026-05-03 20:53 10.65285 -61.27645 3673 ft 137 kts 17°
2026-05-03 20:54 10.66230 -61.27460 3847 ft 138 kts 19°
2026-05-03 20:54 10.68052 -61.26921 4231 ft 137 kts 25°
2026-05-03 20:54 10.68947 -61.26557 4433 ft 139 kts 27°
2026-05-03 20:55 10.69837 -61.26159 4685 ft 142 kts 28°
2026-05-03 20:55 10.70726 -61.25719 5033 ft 143 kts 30°
2026-05-03 20:55 10.71612 -61.25267 5370 ft 144 kts 31°
2026-05-03 20:55 10.72523 -61.24797 5796 ft 148 kts 28°
2026-05-03 20:56 10.73442 -61.24358 6270 ft 146 kts 31°
2026-05-03 20:56 10.74368 -61.23880 6680 ft 146 kts 32°
2026-05-03 20:56 10.75218 -61.23409 6857 ft 141 kts 33°
2026-05-03 20:56 10.76090 -61.22915 6912 ft 145 kts 33°
2026-05-03 20:57 10.76987 -61.22401 6903 ft 151 kts 32°
2026-05-03 20:57 10.77920 -61.21866 6894 ft 156 kts 34°
2026-05-03 20:57 10.78877 -61.21306 6906 ft 162 kts 32°
2026-05-03 20:57 10.79882 -61.20757 6892 ft 166 kts 31°
2026-05-03 20:58 10.80916 -61.20210 6908 ft 170 kts 30°
2026-05-03 20:58 10.81980 -61.19655 6907 ft 174 kts 30°
2026-05-03 20:58 10.83055 -61.19090 6921 ft 178 kts 30°
2026-05-03 20:58 10.84159 -61.18506 6920 ft 181 kts 30°
2026-05-03 20:59 10.85284 -61.17900 6922 ft 184 kts 30°
2026-05-03 20:59 10.86420 -61.17288 6919 ft 186 kts 30°
2026-05-03 20:59 10.87567 -61.16664 6921 ft 188 kts 30°
2026-05-03 20:59 10.88720 -61.16034 6904 ft 189 kts 30°
2026-05-03 21:00 10.89879 -61.15404 6908 ft 189 kts 30°
2026-05-03 21:00 10.90255 -61.15202 6902 ft 189 kts 30°
2026-05-03 21:00 10.92208 -61.14144 6906 ft 190 kts 30°
2026-05-03 21:00 10.93359 -61.13527 6904 ft 189 kts 30°
2026-05-03 21:01 10.94524 -61.12898 6913 ft 190 kts 30°
2026-05-03 21:01 10.95689 -61.12269 6909 ft 190 kts 30°
2026-05-03 21:01 10.96858 -61.11641 6912 ft 190 kts 30°
2026-05-03 21:01 10.98024 -61.11009 6900 ft 189 kts 29°
2026-05-03 21:02 10.99218 -61.10362 6641 ft 202 kts 29°
2026-05-03 21:02 11.00483 -61.09702 6377 ft 204 kts 27°
2026-05-03 21:02 11.01743 -61.09059 6161 ft 202 kts 27°
2026-05-03 21:02 11.02971 -61.08419 5923 ft 201 kts 28°
2026-05-03 21:03 11.04213 -61.07754 5713 ft 201 kts 29°
2026-05-03 21:03 11.05441 -61.07090 5551 ft 198 kts 30°
2026-05-03 21:03 11.06646 -61.06432 5408 ft 195 kts 30°
2026-05-03 21:03 11.07835 -61.05783 5261 ft 193 kts 30°
2026-05-03 21:04 11.09010 -61.05133 5118 ft 191 kts 31°
2026-05-03 21:04 11.10176 -61.04494 4971 ft 190 kts 30°
2026-05-03 21:04 11.11340 -61.03863 4814 ft 189 kts 30°
2026-05-03 21:04 11.12494 -61.03236 4669 ft 187 kts 30°
2026-05-03 21:05 11.13621 -61.02627 4529 ft 182 kts 30°
2026-05-03 21:05 11.14690 -61.02057 4376 ft 167 kts 30°
2026-05-03 21:05 11.15658 -61.01512 4290 ft 149 kts 40°
2026-05-03 21:05 11.16058 -61.00642 4113 ft 139 kts 84°
2026-05-03 21:06 11.16100 -60.99664 3916 ft 138 kts 89°
2026-05-03 21:06 11.16071 -60.98692 3722 ft 137 kts 92°
2026-05-03 21:06 11.16000 -60.97724 3531 ft 136 kts 93°
2026-05-03 21:06 11.15918 -60.96779 3373 ft 131 kts 93°
2026-05-03 21:07 11.15852 -60.95887 2910 ft 127 kts 91°
2026-05-03 21:07 11.15790 -60.95000 2459 ft 123 kts 92°
2026-05-03 21:07 11.15724 -60.94171 2140 ft 113 kts 92°
2026-05-03 21:07 11.15656 -60.93408 1847 ft 102 kts 93°
2026-05-03 21:08 11.15598 -60.92758 1706 ft 84 kts 95°
2026-05-03 21:08 11.15560 -60.92173 1457 ft 81 kts 93°
2026-05-03 21:08 11.15512 -60.91605 1230 ft 80 kts 94°
2026-05-03 21:08 11.15468 -60.91055 1002 ft 77 kts 92°
2026-05-03 21:09 11.15409 -60.90527 929 ft 74 kts 102°
2026-05-03 21:09 11.15377 -60.90018 858 ft 74 kts 93°
2026-05-03 21:09 11.15360 -60.89511 820 ft 71 kts 94°
2026-05-03 21:09 11.15380 -60.89015 775 ft 67 kts 90°
2026-05-03 21:10 11.15328 -60.88532 416 ft 81 kts 103°
2026-05-03 21:10 11.15229 -60.88066 3 ft 7 kts 106°
2026-05-03 21:10 11.15219 -60.88026 4 ft 6 kts 104°
2026-05-03 21:10 11.15218 -60.88021 4 ft 6 kts 104°